TimeEDT,TemperatureF,Dew PointF,Humidity,Sea Level PressureIn,VisibilityMPH,Wind Direction,Wind SpeedMPH,Gust SpeedMPH,PrecipitationIn,Events,Conditions,WindDirDegrees,DateUTC
12:15 AM,39.2,36.0,88,30.06,10.0,NNE,3.5,-,N/A,,Light Drizzle,30,2012-10-08 04:15:00
12:35 AM,39.2,35.8,88,30.08,10.0,Calm,Calm,-,N/A,,Light Drizzle,0,2012-10-08 04:35:00
12:55 AM,39.2,36.1,89,30.08,10.0,Calm,Calm,-,N/A,,Light Drizzle,0,2012-10-08 04:55:00
1:15 AM,39.2,36.1,89,30.09,10.0,Calm,Calm,-,N/A,,Drizzle,0,2012-10-08 05:15:00
1:35 AM,39.2,35.8,88,30.09,10.0,Calm,Calm,-,N/A,,Drizzle,0,2012-10-08 05:35:00
1:55 AM,39.4,36.1,88,30.10,10.0,Calm,Calm,-,N/A,,Light Drizzle,0,2012-10-08 05:55:00
2:15 AM,39.0,35.8,88,30.10,10.0,Calm,Calm,-,N/A,,Overcast,0,2012-10-08 06:15:00
2:35 AM,38.7,35.6,89,30.09,10.0,Calm,Calm,-,N/A,,Overcast,0,2012-10-08 06:35:00
2:55 AM,38.7,35.8,89,30.09,10.0,Calm,Calm,-,N/A,,Overcast,0,2012-10-08 06:55:00
3:15 AM,38.7,35.8,89,30.09,10.0,Calm,Calm,-,N/A,,Overcast,0,2012-10-08 07:15:00
3:35 AM,38.8,35.6,88,30.09,10.0,Calm,Calm,-,N/A,,Overcast,0,2012-10-08 07:35:00
3:55 AM,39.0,35.6,88,30.09,10.0,Calm,Calm,-,N/A,,Overcast,0,2012-10-08 07:55:00
4:15 AM,39.2,35.6,87,30.09,10.0,Calm,Calm,-,N/A,,Overcast,0,2012-10-08 08:15:00
4:35 AM,38.8,35.8,89,30.11,10.0,Calm,Calm,-,N/A,,Overcast,0,2012-10-08 08:35:00
4:55 AM,38.7,36.1,91,30.11,0.2,Calm,Calm,-,N/A,Fog,Fog,0,2012-10-08 08:55:00
5:15 AM,38.8,36.5,91,30.11,0.5,Calm,Calm,-,N/A,Fog,Fog,0,2012-10-08 09:15:00
5:35 AM,38.8,36.5,91,30.11,10.0,Calm,Calm,-,N/A,,Overcast,0,2012-10-08 09:35:00
5:55 AM,39.0,36.7,91,30.12,10.0,Calm,Calm,-,N/A,,Overcast,0,2012-10-08 09:55:00
6:15 AM,39.2,36.7,91,30.13,7.0,Calm,Calm,-,N/A,,Overcast,0,2012-10-08 10:15:00
6:35 AM,38.8,36.7,92,30.13,10.0,Calm,Calm,-,N/A,,Overcast,0,2012-10-08 10:35:00
6:55 AM,38.7,36.5,92,30.14,2.5,Calm,Calm,-,N/A,,Overcast,0,2012-10-08 10:55:00
7:15 AM,38.7,36.5,92,30.15,10.0,Calm,Calm,-,N/A,,Overcast,0,2012-10-08 11:15:00
7:35 AM,38.7,36.5,92,30.15,10.0,Calm,Calm,-,N/A,,Overcast,0,2012-10-08 11:35:00
7:55 AM,39.2,37.0,92,30.18,10.0,Calm,Calm,-,N/A,,Overcast,0,2012-10-08 11:55:00
8:15 AM,39.2,37.0,92,30.18,7.0,Calm,Calm,-,N/A,,Overcast,0,2012-10-08 12:15:00
8:35 AM,40.5,38.1,91,30.19,10.0,Calm,Calm,-,N/A,,Overcast,0,2012-10-08 12:35:00
8:55 AM,40.5,37.9,91,30.20,5.0,Calm,Calm,-,N/A,Rain,Light Rain,0,2012-10-08 12:55:00
9:15 AM,41.0,37.8,88,30.21,10.0,Calm,Calm,-,N/A,,Overcast,0,2012-10-08 13:15:00
9:35 AM,41.4,36.9,84,30.21,10.0,Calm,Calm,-,N/A,Rain,Light Rain,0,2012-10-08 13:35:00
9:55 AM,41.0,36.1,83,30.21,7.0,Calm,Calm,-,N/A,Rain,Rain,0,2012-10-08 13:55:00
10:15 AM,42.1,37.8,85,30.22,7.0,Calm,Calm,-,N/A,Rain,Light Rain,0,2012-10-08 14:15:00
10:35 AM,42.6,38.7,86,30.22,10.0,Calm,Calm,-,N/A,,Overcast,0,2012-10-08 14:35:00
10:55 AM,44.6,37.9,77,30.22,10.0,West,8.1,-,N/A,,Mostly Cloudy,280,2012-10-08 14:55:00
11:15 AM,46.4,38.3,73,30.22,10.0,West,3.5,-,N/A,,Mostly Cloudy,280,2012-10-08 15:15:00
11:35 AM,43.9,35.8,73,30.23,10.0,West,8.1,-,N/A,,Mostly Cloudy,280,2012-10-08 15:35:00
11:55 AM,45.5,37.0,72,30.23,10.0,WSW,3.5,-,N/A,,Scattered Clouds,250,2012-10-08 15:55:00
12:15 PM,49.1,37.9,65,30.23,10.0,WSW,3.5,-,N/A,,Clear,240,2012-10-08 16:15:00
12:35 PM,47.5,32.2,55,30.24,10.0,WSW,4.6,-,N/A,,Scattered Clouds,250,2012-10-08 16:35:00
12:55 PM,49.1,32.2,52,30.23,10.0,West,5.8,-,N/A,,Mostly Cloudy,270,2012-10-08 16:55:00
1:15 PM,46.8,33.1,59,30.24,10.0,WNW,6.9,-,N/A,,Mostly Cloudy,300,2012-10-08 17:15:00
1:35 PM,50.0,33.8,54,30.23,10.0,WSW,4.6,-,N/A,,Scattered Clouds,250,2012-10-08 17:35:00
1:55 PM,50.7,30.9,47,30.22,10.0,SW,3.5,-,N/A,,Scattered Clouds,220,2012-10-08 17:55:00
2:35 PM,51.6,31.5,46,30.23,10.0,West,8.1,-,N/A,,Mostly Cloudy,260,2012-10-08 18:35:00
2:55 PM,51.6,31.1,45,30.23,10.0,SW,5.8,-,N/A,,Mostly Cloudy,230,2012-10-08 18:55:00
3:15 PM,51.6,30.7,45,30.23,10.0,West,8.1,-,N/A,,Scattered Clouds,270,2012-10-08 19:15:00
3:35 PM,51.8,29.1,42,30.23,10.0,SSW,6.9,-,N/A,,Scattered Clouds,210,2012-10-08 19:35:00
3:55 PM,51.3,26.2,38,30.23,10.0,SW,6.9,-,N/A,,Scattered Clouds,220,2012-10-08 19:55:00
4:15 PM,50.9,26.6,39,30.24,10.0,SW,4.6,-,N/A,,Clear,230,2012-10-08 20:15:00
4:35 PM,49.8,27.5,42,30.24,10.0,SW,4.6,-,N/A,,Clear,220,2012-10-08 20:35:00
4:55 PM,49.6,28.2,44,30.24,10.0,SSW,4.6,-,N/A,,Clear,210,2012-10-08 20:55:00
5:15 PM,49.1,29.7,47,30.25,10.0,Calm,Calm,-,N/A,,Clear,0,2012-10-08 21:15:00
5:35 PM,48.4,30.0,49,30.25,10.0,Calm,Calm,-,N/A,,Clear,0,2012-10-08 21:35:00
5:55 PM,47.8,29.1,48,30.26,10.0,Calm,Calm,-,N/A,,Clear,0,2012-10-08 21:55:00
6:15 PM,47.7,28.6,48,30.26,10.0,Calm,Calm,-,N/A,,Clear,0,2012-10-08 22:15:00
6:35 PM,46.6,29.3,51,30.27,10.0,South,3.5,-,N/A,,Clear,180,2012-10-08 22:35:00
6:55 PM,45.3,31.1,58,30.27,10.0,Calm,Calm,-,N/A,,Clear,0,2012-10-08 22:55:00
7:15 PM,45.0,32.5,62,30.28,10.0,Calm,Calm,-,N/A,,Clear,0,2012-10-08 23:15:00
7:55 PM,43.2,32.0,65,30.28,10.0,Calm,Calm,-,N/A,,Clear,0,2012-10-08 23:55:00
8:15 PM,41.9,32.7,70,30.29,10.0,Calm,Calm,-,N/A,,Clear,0,2012-10-09 00:15:00
8:35 PM,40.3,33.1,75,30.30,10.0,Calm,Calm,-,N/A,,Clear,0,2012-10-09 00:35:00
8:55 PM,38.5,33.8,83,30.30,10.0,Calm,Calm,-,N/A,,Clear,0,2012-10-09 00:55:00
9:15 PM,39.6,33.3,78,30.30,10.0,Calm,Calm,-,N/A,,Clear,0,2012-10-09 01:15:00
9:35 PM,38.5,33.4,82,30.31,10.0,Calm,Calm,-,N/A,,Clear,0,2012-10-09 01:35:00
10:15 PM,38.7,32.9,80,30.31,10.0,Calm,Calm,-,N/A,,Clear,0,2012-10-09 02:15:00
10:35 PM,36.9,32.9,86,30.31,10.0,Calm,Calm,-,N/A,,Clear,0,2012-10-09 02:35:00
10:55 PM,35.6,32.0,87,30.32,10.0,Calm,Calm,-,N/A,,Clear,0,2012-10-09 02:55:00
11:15 PM,35.6,32.2,87,30.31,10.0,Calm,Calm,-,N/A,,Clear,0,2012-10-09 03:15:00
11:55 PM,35.1,32.0,89,30.32,10.0,Calm,Calm,-,N/A,,Clear,0,2012-10-09 03:55:00